This demonstration page uses our WeatherBlox Daily Observations layout. Learn more.

Left ArrowRight Arrow

Hourly Observations for May 1, 2020

Temp ( °F °C ) Dew Point ( °F °C ) Humidity (%) Winds ( mph kmh ) Pressure ( in mb ) Visibility ( mi km ) Precip ( " mm )
12:53 am 00:53 Clear 76 24.4 49 9.4 39 39 SE 14 22 29.78 1008 10 16 0.00 0.00
1:53 am 01:53 Clear 75 23.9 47 8.3 37 37 SSE 16 26 29.76 1008 10 16 0.00 0.00
2:53 am 02:53 Clear 73 22.8 45 7.2 37 37 SE 16 26 29.75 1008 10 16 0.00 0.00
3:53 am 03:53 Clear 71 21.7 44 6.7 38 38 SE 13 20 29.74 1007 10 16 0.00 0.00
4:53 am 04:53 Clear 69 20.6 43 6.1 39 39 SE 9 15 29.75 1007 10 16 0.00 0.00
5:53 am 05:53 Clear 67 19.4 44 6.7 44 44 SE 9 15 29.75 1008 10 16 0.00 0.00
6:53 am 06:53 Clear 65 18.3 44 6.7 47 47 SE 6 9 29.77 1008 10 16 0.00 0.00
7:53 am 07:53 Sunny 66 18.9 44 6.7 45 45 SE 8 13 29.80 1009 10 16 0.00 0.00
8:53 am 08:53 Sunny 68 20 44 6.7 42 42 SE 10 17 29.82 1010 10 16 0.00 0.00
9:53 am 09:53 Sunny 78 25.6 46 7.8 32 32 SSE 8 13 29.82 1010 10 16 0.00 0.00
10:53 am 10:53 Sunny 85 29.4 45 7.2 25 25 SE 5 7 29.80 1009 10 16 0.00 0.00
11:53 am 11:53 Sunny 90 32.2 44 6.7 20 20 SSW 8 13 29.80 1009 10 16 0.00 0.00
12:53 pm 12:53 Sunny 95 35 42 5.6 16 16 undefined N/A 29.77 1008 10 16 0.00 0.00
1:53 pm 13:53 Sunny 98 36.7 40 4.4 13 13 WNW 10 17 29.75 1007 10 16 0.00 0.00
2:53 pm 14:53 Sunny 101 38.3 37 2.8 11 11 VRB 3 6 29.72 1006 10 16 0.00 0.00
3:53 pm 15:53 Sunny 104 40 34 1.1 9 9 WNW 14 22 29.69 1005 10 16 0.00 0.00
4:53 pm 16:53 Sunny 103 39.4 29 -1.7 7 7 WNW 17 28 29.68 1005 10 16 0.00 0.00
5:53 pm 17:53 Sunny 102 38.9 30 -1.1 8 8 W 13 20 29.68 1005 10 16 0.00 0.00
6:32 pm 18:32 undefined 95 35 44 6.7 17 17 undefined N/A 29.60 1002 N/A 0.00 0.00
6:53 pm 18:53 undefined N/A N/A N/A undefined N/A N/A N/A 0.00 0.00
8:53 pm 20:53 Clear 86 30 43 6.1 22 22 S 14 22 29.73 1007 10 16 0.00 0.00
9:53 pm 21:53 Clear 82 27.8 44 6.7 26 26 S 10 17 29.75 1007 10 16 0.00 0.00
10:53 pm 22:53 Clear 78 25.6 44 6.7 30 30 S 8 13 29.75 1008 10 16 0.00 0.00
11:53 pm 23:53 Clear 76 24.4 43 6.1 31 31 S 9 15 29.75 1008 10 16 0.00 0.00

Powered by AerisWeather